SCP
0 -0 -0 -0 -0 -0 -0 -0 -0 -0 -0 -0 -0 -0 -0 -0 -0 -0 -0 -0 -0 -0 -0 -0 -0 -0 -0 -0 -0 -0 -0 -0 -0 -0 -0 -0 -0 -0 -0 -0 0 -0 0
0 0 -0 -0 -0 -0 -0 -0 -0 -0 -0 -0 -0 -0 -0 -0 -0 -0 -0 -0 -0 -0 -0 -0 -0 -0 -0 -0 -0 -0 0 0 -0 -0 -0 -0 -0 -0 -0 -0 -0 0 0
0 0 0 -0 -0 -0 -0 -0 -0 -0 -0 -0 -0 -0 -0 -0 -0 -0 -0 -0 -0 -0 -0 -0 -0 -0 -0 -0 -0 0 0 0 0 -0 -0 -0 -0 -0 0 0 -0 -0 -0
0 0 0 0 0 -0 -0 -0 -0 -0 -0 -0 -0 -0 -0 -0 -0 -0 -0 -0 -0 -0 -0 -0 -0 -0 -0 -0 -0 -0 -0 -0 -0 -0 -0 -0 -0 0 0 0 -0 -0 -0
0 0 0 0 0 -0 -0 0 0 0 0 0 0 -0 -0 -0 -0 -0 -0 -0 -0 -0 -0 -0 -0 -0 -0 -0 -0 -0 -0 -0 0 0 0 -0 -0 0 0 0 0 -0 0
0 0 0 0 0 0 0 0 0 -0 0 -0 -0 -0 -0 -0 -0 -0 -0 -0 -0 -0 -0 -0 -0 -0 -0 -0 -0 0 -0 -0 0 0 -0 0 -0 0 0 0 0 0 0
0 0 0 0 0 0 0 0 0 -0 -0 -0 -0 -0 -0 -0 -0 -0 -0 -0 -0 -0 -0 -0 -0 -0 -0 -0 0 0 0 0 0 0 0 0 -0 0 0 0 0 0 -0
0 0 0 0 0 0 0 0 0 0 -0 -0 -0 -0 -0 -0 -0 -0 -0 -0 -0 -0 -0 -0 -0 -0 -0 0 0 0 0 0 -0 0 0 0 0 0 0 0 0 0 0
0 0 0 0 0 0 0 0 0 0 0 -0 -0 -0 -0 0 0 0 0 -0 0 -0 -0 -0 -0 0 0 0 0 0 0 0 -0 0 0 0 0 0 0 0 0 0 0
0 0 0 0 0 0 0 0 0 0 0 0 0 -0 -0 -0 0 0 0 0 0 -0 -0 -0 0 0 0 0 0 0 0 0 0 0 0 0 0 0 0 0 0 -0 -0
0 0 0 0 0 0 0 0 0 0 0 0 0 0 0 0 0 0 -0 -0 -0 -0 -0 0 0 0 0 0 0 0 0 0 0 0 0 0 0 0 0 0 0 -0 -0
0 0 0 0 0 0 0 0 0 0 0 0 0 0 0 0 0 0 0 -0 0 0 0 0 0 0 0 0 0 0 0 0 0 0 0 0 0 0 0 0 0 -0 -0
0 0 0 0 0 0 0 0 0 0 0 0 0 -0 0 0 0 0 0 0 0 0 0 0 0 0 0 0 0 0 0 0 0 0 0 0 0 0 0 0 0 0 0
0 0 0 0 0 0 0 0 0 0 0 0 -0 0 0 0 0 0 0 0 0 0 0 0 0 0 0 0 0 0 0 0 0 0 0 0 0 0 0 0 0 0 0
0 0 0 0 0 0 0 0 0 0 0 0 0 0 0 0 0 0 -0 0 -0 0 0 0 0 0 0 0 0 0 0 0 0 0 0 0 0 0 0 0 0 0 0
0 0 0 0 0 0 0 0 0 0 0 0 0 0 0 0 0 -0 0 0 -0 0 0 0 0 0 0 0 0 0 0 0 0 0 0 0 0 0 0 0 0 0 0
0 0 0 0 0 0 0 0 0 0 0 0 0 0 0 0 0 0 0 0 0 0 0 0 0 0 0 0 0 0 0 0 0 0 0 0 0 0 0 0 0 0 0
0 0 0 0 0 0 0 0 0 0 0 0 0 0 0 0 0 0 0 0 0 0 0 0 0 0 0 0 0 0 0 0 0 0 0 0 0 0 0 0 0 0 0
0 0 0 0 0 0 0 0 0 0 0 0 0 0 0 0 0 0 0 0 0 0 0 0 0 0 0 0 0 0 0 0 0 0 0 0 0 0 0 0 0 0 0
0 0 0 0 0 0 0 0 0 0 0 0 0 0 0 0 0 0 0 0 0 0 0 0 0 0 0 0 0 0 0 0 0 0 0 0 0 0 0 0 0 0 0
0 0 0 0 0 0 0 0 0 0 0 0 0 0 0 0 0 0 0 0 0 0 0 0 0 0 0 0 0 0 0 0 0 0 0 0 0 0 0 0 0 0 0
0 0 0 0 0 0 0 0 0 0 0 0 0 0 0 0 0 0 0 0 0 0 0 0 0 0 0 0 0 0 0 0 0 0 0 0 0 0 0 0 0 0 0
0 0 0 0 0 0 0 0 0 0 0 0 0 0 0 0 0 0 0 0 0 0 0 0 0 0 0 0 0 0 0 0 0 0 0 0 0 0 0 0 0 0 0
0 0 0 0 0 0 0 0 0 0 0 0 0 0 0 0 0 0 0 0 0 0 0 0 0 0 0 0 0 0 0 0 0 0 0 0 0 0 0 0 0 0 0
0 0 0 0 0 0 0 0 0 0 0 0 0 0 0 0 0 0 0 0 0 0 0 0 0 0 0 0 0 0 0 0 0 0 0 0 0 0 0 0 0 0 0
0 0 0 0 0 0 0 0 0 0 0 0 0 0 0 0 0 0 0 0 0 0 0 0 0 0 0 0 0 0 0 0 0 0 0 0 0 0 0 0 0 0 0
Wind_Speed_500mb
45 52 48 41 37 33 30 30 28 26 25 27 27 29 29 28 30 27 34 31 25 26 26 23 22 25 28 30 33 37 34 37 37 33 35 35 34 34 29 32 34 30 33
49 55 49 44 37 34 32 31 28 26 26 28 29 32 32 31 30 30 34 28 25 22 24 20 23 28 30 31 35 40 40 38 32 36 24 27 31 33 31 31 34 28 29
50 57 51 45 39 35 34 32 29 33 34 34 38 41 35 32 33 36 33 26 23 21 20 21 27 30 31 33 36 40 39 32 25 28 27 25 25 22 21 23 24 21 23
49 60 52 45 39 37 36 34 35 40 39 37 43 40 40 42 45 41 32 23 18 12 13 22 26 30 32 33 35 37 34 34 26 19 22 24 23 23 22 20 22 23 21
52 58 51 45 40 38 37 37 41 44 41 37 42 38 37 37 31 23 17 19 19 18 19 21 26 28 29 30 29 28 26 26 20 11 20 23 21 22 22 21 21 22 20
61 58 51 43 41 41 40 42 43 46 40 39 41 36 32 29 23 19 14 11 9 16 20 21 22 25 25 26 25 23 22 21 18 15 17 18 17 20 21 21 20 20 20
64 58 50 43 42 44 44 43 44 45 44 40 38 33 30 26 21 14 9 7 9 16 21 21 22 23 23 23 22 20 18 17 17 13 16 17 18 19 19 19 19 20 21
61 59 51 45 45 48 48 43 44 46 43 39 36 30 23 19 17 14 14 18 12 21 22 20 20 20 20 20 19 18 15 15 18 11 16 16 16 14 14 17 19 20 21
52 58 53 50 51 51 50 47 45 43 41 39 32 25 19 15 15 18 23 19 17 26 24 21 19 17 16 15 15 15 13 11 14 11 15 17 16 16 16 16 16 16 14
51 55 55 55 53 54 51 47 45 43 40 35 26 21 17 16 18 22 20 14 23 24 22 19 16 14 13 13 14 12 10 8 10 12 14 16 16 14 13 14 16 17 16
55 56 56 58 55 52 51 48 44 44 40 28 23 17 14 14 16 19 17 18 23 21 19 16 13 10 9 10 12 9 9 9 10 13 15 17 17 15 14 14 15 18 18
60 62 59 59 58 54 53 52 47 43 33 27 22 18 17 17 17 19 20 19 20 18 15 12 9 7 5 5 7 6 7 9 7 12 14 15 16 16 16 15 14 12 8
67 66 64 62 59 56 53 51 46 39 32 27 22 21 19 21 17 16 14 16 17 16 14 11 8 5 2 3 6 6 6 3 4 8 12 15 18 16 15 12 13 11 7
64 63 63 63 59 54 51 48 44 40 34 27 25 23 21 15 11 9 13 15 15 14 12 9 5 5 4 2 1 3 5 4 5 8 10 12 14 16 15 14 11 8 8
64 58 63 63 59 52 49 48 44 40 33 26 28 26 24 18 14 19 15 16 16 12 7 5 3 4 3 4 5 10 11 8 7 10 11 10 15 13 14 13 8 6 5
60 56 60 60 54 50 46 46 42 38 28 26 28 28 27 21 21 20 16 9 10 9 6 5 1 4 3 5 7 11 16 12 14 11 12 8 11 15 13 10 7 2 8
68 63 61 66 59 53 49 44 41 37 32 23 23 23 26 22 23 25 21 17 14 11 10 6 3 2 3 4 8 7 4 7 6 9 16 14 9 11 12 8 4 2 1
68 68 68 73 68 58 49 46 44 41 32 23 23 25 26 22 21 21 17 19 16 12 9 8 2 1 5 7 5 4 11 12 6 7 16 21 9 15 13 7 5 3 1
71 75 73 71 68 63 55 47 43 40 35 23 21 25 29 25 22 20 19 14 8 7 6 6 4 2 8 4 7 13 14 7 7 13 25 19 10 17 11 5 7 8 6
65 67 73 70 64 55 46 54 50 34 32 30 30 26 25 28 24 16 18 17 13 9 8 7 4 1 1 4 7 10 6 11 9 18 12 10 10 9 10 8 11 14 18
50 54 57 78 75 60 48 52 54 46 43 43 36 31 29 28 28 23 20 19 16 9 7 6 5 5 5 6 7 5 10 7 14 11 12 13 11 14 17 20 22 23 23
57 52 46 56 63 60 52 44 50 50 44 42 36 34 32 33 31 30 26 22 20 18 13 12 11 9 8 9 11 11 7 12 19 19 19 23 25 25 28 28 33 32 31
64 60 60 54 50 54 54 46 44 46 45 41 42 41 40 36 33 32 27 22 23 22 18 16 17 15 14 16 19 18 12 12 19 24 31 33 37 36 35 36 33 35 36
57 50 61 53 42 43 56 57 49 45 44 45 45 44 44 42 34 26 24 22 24 24 23 25 22 22 26 31 31 32 33 35 17 16 39 44 43 46 40 38 38 38 34
46 46 44 52 44 43 48 59 58 55 48 41 36 35 36 34 32 32 30 29 30 31 32 33 32 35 34 37 38 38 37 35 38 42 33 35 43 43 40 40 39 34 31
35 37 34 38 38 39 37 37 36 38 46 50 36 32 30 34 38 33 24 29 35 37 37 34 35 36 38 40 38 41 36 39 35 36 42 36 37 38 36 35 32 29 28
Wind_Direction_500mb
173 173 171 169 166 161 157 153 147 145 148 152 157 158 152 145 134 127 134 127 110 86 70 76 91 97 101 96 98 99 91 89 81 84 84 83 82 86 82 74 80 73 71
164 176 171 169 168 163 159 155 147 142 142 138 143 149 149 147 144 137 140 125 108 86 64 72 94 97 98 99 99 98 89 77 72 70 70 81 84 88 76 79 68 64 75
169 173 169 167 167 161 159 155 147 139 135 131 129 130 129 136 145 140 136 123 108 83 63 81 101 102 101 101 104 98 87 78 73 61 62 70 80 82 81 76 77 81 67
171 170 167 165 165 160 157 155 147 143 137 131 133 131 130 128 133 133 127 121 104 85 81 97 103 103 101 103 108 107 105 103 85 62 61 66 71 73 70 66 61 57 53
174 169 165 164 164 158 156 155 150 149 140 131 133 138 141 135 135 136 144 95 92 102 108 108 105 105 103 103 106 106 101 98 104 75 55 57 59 64 62 59 54 51 47
171 167 164 164 162 158 157 156 154 155 147 136 128 137 141 151 144 133 117 109 108 112 116 117 109 105 103 99 98 100 96 90 80 80 62 51 53 57 55 51 48 44 37
169 166 163 164 162 159 158 156 156 158 152 144 134 134 134 136 140 145 160 173 151 145 132 119 110 105 100 97 97 95 87 89 85 54 55 51 45 48 49 47 42 38 35
165 164 163 164 162 160 158 155 157 157 158 151 143 143 145 152 161 162 150 129 144 149 133 124 112 104 99 95 94 91 88 74 63 54 55 42 34 35 37 34 33 33 38
168 165 163 163 162 160 159 159 159 162 161 156 152 154 163 178 182 167 150 151 147 135 134 129 119 106 95 89 85 84 91 75 65 46 33 28 21 17 18 19 20 19 18
168 168 164 163 164 162 162 164 165 168 163 162 166 171 180 182 175 179 187 153 145 133 131 126 118 110 101 89 77 80 88 73 59 31 27 18 11 9 8 10 15 14 15
169 173 168 166 166 167 166 166 169 167 167 174 177 177 180 179 173 164 162 135 135 135 132 127 119 114 109 96 84 75 64 53 47 21 14 10 5 1 3 11 11 10 4
175 175 172 169 169 168 167 165 167 171 178 183 181 178 170 174 165 159 153 144 142 137 134 132 131 132 117 131 103 78 54 69 37 8 1 358 356 357 359 2 8 13 29
176 175 175 172 173 175 174 172 175 177 179 175 175 174 170 173 166 139 146 154 151 150 146 140 135 109 83 43 24 16 23 20 13 344 339 352 359 358 1 8 10 10 29
172 178 174 174 174 180 182 181 179 179 177 176 176 175 174 179 172 157 161 167 163 161 154 143 126 50 47 108 57 354 1 13 346 331 341 346 4 9 7 357 2 30 17
177 179 177 174 176 180 186 185 183 182 180 177 180 183 188 197 189 165 151 142 157 159 142 90 21 23 52 55 36 36 16 360 2 4 359 352 350 360 359 356 14 45 337
185 176 177 174 179 185 185 188 187 186 194 182 184 185 196 191 177 168 177 159 143 152 171 196 276 5 26 52 64 54 28 33 31 9 1 342 338 338 360 3 56 26 313
188 177 177 175 182 187 189 189 187 186 192 194 186 183 177 170 176 180 191 195 194 209 204 208 154 149 74 33 78 6 317 346 328 341 348 331 312 331 10 4 357 275 292
194 183 179 184 187 191 189 188 187 188 197 207 194 186 182 178 183 182 179 185 195 191 207 171 159 287 330 332 166 286 276 257 310 307 311 316 286 316 333 355 345 347 84
196 184 178 184 187 192 196 186 190 191 195 208 206 199 193 191 187 190 177 177 191 206 180 195 207 294 317 337 15 16 25 42 333 303 295 279 276 300 335 324 310 302 274
198 203 197 185 185 189 186 183 183 180 189 202 207 204 207 202 191 189 190 196 196 199 198 215 228 108 269 345 345 348 359 332 314 337 331 333 315 320 320 313 284 267 256
195 193 198 200 198 195 195 186 188 183 197 207 205 211 208 207 202 203 209 201 201 201 217 203 215 233 267 306 327 346 323 300 286 307 300 298 295 278 291 289 275 264 264
180 186 197 197 191 186 190 188 193 195 199 213 213 214 219 214 210 210 212 218 214 208 218 222 221 234 246 268 277 295 279 261 250 250 255 269 272 272 269 270 281 286 279
178 184 190 191 193 183 191 193 195 199 209 208 214 223 222 225 219 214 212 222 221 218 230 242 240 239 251 262 257 250 246 244 229 237 248 259 263 271 278 277 283 282 281
162 170 185 187 191 186 192 200 203 205 209 214 221 227 231 226 219 220 218 221 228 227 228 237 244 250 252 257 264 263 259 255 221 227 234 243 256 268 267 274 274 277 279
152 166 167 175 180 191 198 200 209 211 216 217 226 227 223 223 218 216 217 220 231 233 237 242 251 257 258 260 265 271 278 277 276 266 263 248 251 258 262 265 270 275 274
141 156 154 167 176 188 203 209 212 212 217 216 217 213 203 209 221 218 226 242 246 250 250 251 258 265 269 268 268 272 269 271 270 274 267 261 267 247 255 262 273 277 274
Wind_Speed_850mb
45 52 48 41 37 33 30 30 28 26 25 27 27 29 29 28 30 27 34 31 25 26 26 23 22 25 28 30 33 37 34 37 37 33 35 35 34 34 29 32 34 30 33
49 55 49 44 37 34 32 31 28 26 26 28 29 32 32 31 30 30 34 28 25 22 24 20 23 28 30 31 35 40 40 38 32 36 24 27 31 33 31 31 34 28 29
50 57 51 45 39 35 34 32 29 33 34 34 38 41 35 32 33 36 33 26 23 21 20 21 27 30 31 33 36 40 39 32 25 28 27 25 25 22 21 23 24 21 23
49 60 52 45 39 37 36 34 35 40 39 37 43 40 40 42 45 41 32 23 18 12 13 22 26 30 32 33 35 37 34 34 26 19 22 24 23 23 22 20 22 23 21
52 58 51 45 40 38 37 37 41 44 41 37 42 38 37 37 31 23 17 19 19 18 19 21 26 28 29 30 29 28 26 26 20 11 20 23 21 22 22 21 21 22 20
61 58 51 43 41 41 40 42 43 46 40 39 41 36 32 29 23 19 14 11 9 16 20 21 22 25 25 26 25 23 22 21 18 15 17 18 17 20 21 21 20 20 20
64 58 50 43 42 44 44 43 44 45 44 40 38 33 30 26 21 14 9 7 9 16 21 21 22 23 23 23 22 20 18 17 17 13 16 17 18 19 19 19 19 20 21
61 59 51 45 45 48 48 43 44 46 43 39 36 30 23 19 17 14 14 18 12 21 22 20 20 20 20 20 19 18 15 15 18 11 16 16 16 14 14 17 19 20 21
52 58 53 50 51 51 50 47 45 43 41 39 32 25 19 15 15 18 23 19 17 26 24 21 19 17 16 15 15 15 13 11 14 11 15 17 16 16 16 16 16 16 14
51 55 55 55 53 54 51 47 45 43 40 35 26 21 17 16 18 22 20 14 23 24 22 19 16 14 13 13 14 12 10 8 10 12 14 16 16 14 13 14 16 17 16
55 56 56 58 55 52 51 48 44 44 40 28 23 17 14 14 16 19 17 18 23 21 19 16 13 10 9 10 12 9 9 9 10 13 15 17 17 15 14 14 15 18 18
60 62 59 59 58 54 53 52 47 43 33 27 22 18 17 17 17 19 20 19 20 18 15 12 9 7 5 5 7 6 7 9 7 12 14 15 16 16 16 15 14 12 8
67 66 64 62 59 56 53 51 46 39 32 27 22 21 19 21 17 16 14 16 17 16 14 11 8 5 2 3 6 6 6 3 4 8 12 15 18 16 15 12 13 11 7
64 63 63 63 59 54 51 48 44 40 34 27 25 23 21 15 11 9 13 15 15 14 12 9 5 5 4 2 1 3 5 4 5 8 10 12 14 16 15 14 11 8 8
64 58 63 63 59 52 49 48 44 40 33 26 28 26 24 18 14 19 15 16 16 12 7 5 3 4 3 4 5 10 11 8 7 10 11 10 15 13 14 13 8 6 5
60 56 60 60 54 50 46 46 42 38 28 26 28 28 27 21 21 20 16 9 10 9 6 5 1 4 3 5 7 11 16 12 14 11 12 8 11 15 13 10 7 2 8
68 63 61 66 59 53 49 44 41 37 32 23 23 23 26 22 23 25 21 17 14 11 10 6 3 2 3 4 8 7 4 7 6 9 16 14 9 11 12 8 4 2 1
68 68 68 73 68 58 49 46 44 41 32 23 23 25 26 22 21 21 17 19 16 12 9 8 2 1 5 7 5 4 11 12 6 7 16 21 9 15 13 7 5 3 1
71 75 73 71 68 63 55 47 43 40 35 23 21 25 29 25 22 20 19 14 8 7 6 6 4 2 8 4 7 13 14 7 7 13 25 19 10 17 11 5 7 8 6
65 67 73 70 64 55 46 54 50 34 32 30 30 26 25 28 24 16 18 17 13 9 8 7 4 1 1 4 7 10 6 11 9 18 12 10 10 9 10 8 11 14 18
50 54 57 78 75 60 48 52 54 46 43 43 36 31 29 28 28 23 20 19 16 9 7 6 5 5 5 6 7 5 10 7 14 11 12 13 11 14 17 20 22 23 23
57 52 46 56 63 60 52 44 50 50 44 42 36 34 32 33 31 30 26 22 20 18 13 12 11 9 8 9 11 11 7 12 19 19 19 23 25 25 28 28 33 32 31
64 60 60 54 50 54 54 46 44 46 45 41 42 41 40 36 33 32 27 22 23 22 18 16 17 15 14 16 19 18 12 12 19 24 31 33 37 36 35 36 33 35 36
57 50 61 53 42 43 56 57 49 45 44 45 45 44 44 42 34 26 24 22 24 24 23 25 22 22 26 31 31 32 33 35 17 16 39 44 43 46 40 38 38 38 34
46 46 44 52 44 43 48 59 58 55 48 41 36 35 36 34 32 32 30 29 30 31 32 33 32 35 34 37 38 38 37 35 38 42 33 35 43 43 40 40 39 34 31
35 37 34 38 38 39 37 37 36 38 46 50 36 32 30 34 38 33 24 29 35 37 37 34 35 36 38 40 38 41 36 39 35 36 42 36 37 38 36 35 32 29 28
Wind_Direction_850mb
173 173 171 169 166 161 157 153 147 145 148 152 157 158 152 145 134 127 134 127 110 86 70 76 91 97 101 96 98 99 91 89 81 84 84 83 82 86 82 74 80 73 71
164 176 171 169 168 163 159 155 147 142 142 138 143 149 149 147 144 137 140 125 108 86 64 72 94 97 98 99 99 98 89 77 72 70 70 81 84 88 76 79 68 64 75
169 173 169 167 167 161 159 155 147 139 135 131 129 130 129 136 145 140 136 123 108 83 63 81 101 102 101 101 104 98 87 78 73 61 62 70 80 82 81 76 77 81 67
171 170 167 165 165 160 157 155 147 143 137 131 133 131 130 128 133 133 127 121 104 85 81 97 103 103 101 103 108 107 105 103 85 62 61 66 71 73 70 66 61 57 53
174 169 165 164 164 158 156 155 150 149 140 131 133 138 141 135 135 136 144 95 92 102 108 108 105 105 103 103 106 106 101 98 104 75 55 57 59 64 62 59 54 51 47
171 167 164 164 162 158 157 156 154 155 147 136 128 137 141 151 144 133 117 109 108 112 116 117 109 105 103 99 98 100 96 90 80 80 62 51 53 57 55 51 48 44 37
169 166 163 164 162 159 158 156 156 158 152 144 134 134 134 136 140 145 160 173 151 145 132 119 110 105 100 97 97 95 87 89 85 54 55 51 45 48 49 47 42 38 35
165 164 163 164 162 160 158 155 157 157 158 151 143 143 145 152 161 162 150 129 144 149 133 124 112 104 99 95 94 91 88 74 63 54 55 42 34 35 37 34 33 33 38
168 165 163 163 162 160 159 159 159 162 161 156 152 154 163 178 182 167 150 151 147 135 134 129 119 106 95 89 85 84 91 75 65 46 33 28 21 17 18 19 20 19 18
168 168 164 163 164 162 162 164 165 168 163 162 166 171 180 182 175 179 187 153 145 133 131 126 118 110 101 89 77 80 88 73 59 31 27 18 11 9 8 10 15 14 15
169 173 168 166 166 167 166 166 169 167 167 174 177 177 180 179 173 164 162 135 135 135 132 127 119 114 109 96 84 75 64 53 47 21 14 10 5 1 3 11 11 10 4
175 175 172 169 169 168 167 165 167 171 178 183 181 178 170 174 165 159 153 144 142 137 134 132 131 132 117 131 103 78 54 69 37 8 1 358 356 357 359 2 8 13 29
176 175 175 172 173 175 174 172 175 177 179 175 175 174 170 173 166 139 146 154 151 150 146 140 135 109 83 43 24 16 23 20 13 344 339 352 359 358 1 8 10 10 29
172 178 174 174 174 180 182 181 179 179 177 176 176 175 174 179 172 157 161 167 163 161 154 143 126 50 47 108 57 354 1 13 346 331 341 346 4 9 7 357 2 30 17
177 179 177 174 176 180 186 185 183 182 180 177 180 183 188 197 189 165 151 142 157 159 142 90 21 23 52 55 36 36 16 360 2 4 359 352 350 360 359 356 14 45 337
185 176 177 174 179 185 185 188 187 186 194 182 184 185 196 191 177 168 177 159 143 152 171 196 276 5 26 52 64 54 28 33 31 9 1 342 338 338 360 3 56 26 313
188 177 177 175 182 187 189 189 187 186 192 194 186 183 177 170 176 180 191 195 194 209 204 208 154 149 74 33 78 6 317 346 328 341 348 331 312 331 10 4 357 275 292
194 183 179 184 187 191 189 188 187 188 197 207 194 186 182 178 183 182 179 185 195 191 207 171 159 287 330 332 166 286 276 257 310 307 311 316 286 316 333 355 345 347 84
196 184 178 184 187 192 196 186 190 191 195 208 206 199 193 191 187 190 177 177 191 206 180 195 207 294 317 337 15 16 25 42 333 303 295 279 276 300 335 324 310 302 274
198 203 197 185 185 189 186 183 183 180 189 202 207 204 207 202 191 189 190 196 196 199 198 215 228 108 269 345 345 348 359 332 314 337 331 333 315 320 320 313 284 267 256
195 193 198 200 198 195 195 186 188 183 197 207 205 211 208 207 202 203 209 201 201 201 217 203 215 233 267 306 327 346 323 300 286 307 300 298 295 278 291 289 275 264 264
180 186 197 197 191 186 190 188 193 195 199 213 213 214 219 214 210 210 212 218 214 208 218 222 221 234 246 268 277 295 279 261 250 250 255 269 272 272 269 270 281 286 279
178 184 190 191 193 183 191 193 195 199 209 208 214 223 222 225 219 214 212 222 221 218 230 242 240 239 251 262 257 250 246 244 229 237 248 259 263 271 278 277 283 282 281
162 170 185 187 191 186 192 200 203 205 209 214 221 227 231 226 219 220 218 221 228 227 228 237 244 250 252 257 264 263 259 255 221 227 234 243 256 268 267 274 274 277 279
152 166 167 175 180 191 198 200 209 211 216 217 226 227 223 223 218 216 217 220 231 233 237 242 251 257 258 260 265 271 278 277 276 266 263 248 251 258 262 265 270 275 274
141 156 154 167 176 188 203 209 212 212 217 216 217 213 203 209 221 218 226 242 246 250 250 251 258 265 269 268 268 272 269 271 270 274 267 261 267 247 255 262 273 277 274